Vertical_Velocity
2 -1 -2 -1 -2 -0 -2 -5 -5 2 2 2 -2 -3 1 4 1 3 11 14 10 -7 0 -4 3 -1 -4 -0 -2 -1 -2 -0 -0 -2 0 -2 -3 -1 1 -2 -1 -3 -3 -2 -1 -3 -4
3 6 1 5 -2 1 2 -3 -3 -0 -2 2 -2 -1 0 4 -1 -1 3 4 15 1 -5 -2 7 -8 -1 1 -1 -1 -2 -2 -1 -1 -2 -3 -2 -2 -2 -3 -1 -1 -3 -1 -2 -2 -3
2 4 4 -1 -0 0 -1 1 -9 -5 1 -0 -4 -2 -1 2 -0 -0 -4 4 6 0 -7 3 -3 -0 -0 1 -2 -2 -1 -2 0 2 -0 -3 -2 -2 -2 -1 -2 -2 -4 -3 -0 -2 -2
-2 1 2 4 1 -4 -2 2 1 -3 -3 0 3 3 -4 -4 0 1 -3 5 9 8 -6 -4 -1 -0 -1 -1 -2 -2 -2 -2 1 -1 -3 1 -0 -1 -3 -1 -0 -2 -2 2 -2 -1 -3
-8 -2 6 4 4 -3 -5 -0 1 2 3 -1 -2 -1 -0 1 -0 1 2 4 4 -10 -1 -5 -3 -3 -3 0 -0 -0 -1 -0 -2 -1 -0 1 1 -3 -1 -3 -2 -3 1 -3 0 1 1
-10 -5 -1 7 1 6 -3 -2 -0 -4 -5 1 -3 2 0 -6 -2 36 -6 11 10 -2 -6 -8 -1 5 1 -3 -0 -1 -1 -1 -0 -2 -4 -2 1 -1 -2 -2 3 1 1 0 0 -4 -4
-1 -7 -4 6 3 -1 1 -0 -1 -7 -4 -5 -6 -4 -12 -0 40 -15 2 -8 -2 10 11 6 -1 3 -2 -0 1 -2 -4 -3 -1 -2 -1 -1 -1 -1 1 2 0 0 -1 -3 2 0 -5
-6 -3 -4 0 6 6 2 -3 -5 1 -2 -3 -3 -1 8 -10 0 2 -6 0 2 -9 -11 3 0 2 -1 1 1 -1 -3 -2 -0 -0 -0 -1 -0 1 0 -1 -1 -2 -1 1 -3 -3 -3
-2 -3 -2 -7 -3 7 6 -2 -5 -5 -4 -2 -5 -4 -1 1 -4 -7 3 -2 -1 3 -10 2 -3 3 0 -4 -1 0 0 0 2 -0 -3 -1 -2 -1 -3 -3 -2 -2 -2 -2 -2 -5 0
4 -2 1 -2 -4 -3 4 3 2 -0 3 -4 -1 -3 1 -2 1 1 -1 -0 -0 -4 -2 -3 -0 1 -1 -2 -2 -2 -2 -1 -3 -3 -2 0 -2 -3 -2 -3 -2 -2 -2 -3 0 0 0
-3 3 -0 -4 -2 -5 -2 3 2 2 -2 -3 -3 -1 -2 0 -5 3 0 2 0 2 -3 1 1 -0 -3 -2 0 -1 -3 -3 -4 -2 -1 -3 -2 -2 -0 1 -3 -1 0 4 2 2 1
-2 -1 3 2 -2 -3 -5 -2 1 -2 5 2 -1 -4 -2 -2 -2 3 2 0 -1 -2 -2 -2 -2 -0 -1 -1 -3 -3 -1 -5 -2 -1 -2 -1 1 -1 1 2 -1 2 -3 -1 -1 -0 3
1 -0 -0 1 2 -2 -2 -1 -3 -5 -4 -1 2 -0 -3 2 -2 -2 -2 -2 -2 -5 2 1 -3 -3 -2 -3 -4 -4 -3 -2 1 1 1 1 -1 -2 -1 0 -1 -2 -0 -0 2 4 3
1 2 1 -0 -2 3 -2 -0 -3 -1 -6 -8 -2 -0 -2 -3 -1 -0 -3 -2 -6 1 -2 -3 -2 -2 -5 -1 1 3 -2 0 -2 -3 -1 -2 -2 -0 0 -1 -1 -2 -3 3 2 2 -1
2 -0 -1 -2 2 -2 4 -2 -1 -4 1 -0 -6 1 0 0 0 -1 -2 -2 -1 -2 -4 -3 -3 -1 0 -3 -2 -1 1 -1 -0 -1 -2 -1 0 -2 -1 -3 0 -0 3 0 0 -2 4
2 1 2 -1 -1 1 -2 4 3 -3 -1 -2 -2 -1 -1 -4 -2 -2 2 -6 -1 1 0 -2 -2 1 1 0 -0 1 -1 -1 -1 -1 -2 -3 -5 -1 -0 -1 0 1 -4 6 -2 1 -1
1 1 1 2 -5 -4 2 -2 3 3 -4 1 -0 -2 -1 -5 -9 -7 -6 -5 -1 -3 -2 -1 -0 1 1 0 1 2 1 0 0 -0 1 2 1 0 1 -0 3 1 3 -2 -1 -2 3
0 0 0 1 -1 1 -3 -1 -3 -2 2 -2 1 -1 2 -3 -4 -6 -2 -3 -5 -5 -2 0 0 0 1 -1 -1 -2 -0 -1 -0 -0 -2 -2 -1 -4 1 -2 0 -0 0 1 4 3 -1
-2 -1 -0 0 1 -1 -4 -0 -0 -1 1 -1 -1 -2 0 -1 -3 -4 -4 -5 -5 -3 -1 -2 -3 -2 -2 -0 -0 -2 -2 -1 -2 -2 -1 -2 -0 -4 2 -0 -2 -2 1 -0 -0 1 -4
4 -4 1 -1 -1 2 1 -5 -3 2 2 -3 -1 1 -3 -2 1 -2 -5 -4 -6 -5 -5 -3 -1 -1 -2 -2 -1 -1 -0 -1 -1 -0 1 1 1 -0 -6 3 4 2 0 1 2 -0 4
3 2 -2 2 -4 4 1 2 -5 -5 -1 -0 2 -3 -1 -1 -1 4 2 1 1 -1 -3 -3 -2 -1 1 0 -1 -4 -4 -1 -1 -1 -1 -0 -4 0 0 -1 2 -0 2 5 -2 3 -4
1 2 -1 -1 3 -3 5 1 -0 1 -7 2 2 0 -0 -1 -1 -2 -0 5 5 1 -1 1 -1 -3 -3 -3 -0 0 2 4 0 -3 -3 -2 -4 -2 -10 -1 -1 -4 2 -2 -1 0 -8
-1 -1 0 0 -0 -0 0 2 1 -1 -2 -2 -5 -2 1 -1 1 0 -2 -1 -2 4 4 4 1 -1 -0 0 -1 -2 -0 1 0 3 6 3 -0 0 -7 1 2 -4 -2 0 3 1 3
2 -2 -0 2 -1 -1 -2 4 5 1 2 -1 -0 0 -2 0 -1 -0 2 -2 -2 -2 -3 0 2 -0 3 7 2 1 2 1 2 5 4 2 3 0 -7 -0 2 1 1 2 -2 -3 -2
0 1 -0 1 2 1 -1 -5 -3 2 2 4 -1 -0 2 -2 1 -2 -3 -2 -0 -1 -1 -4 -3 -1 3 4 -4 -3 -6 -2 -2 -1 2 7 7 0 -0 -1 -12 -3 -2 -3 -2 1 -0
-0 0 -1 0 3 1 3 -3 1 -1 0 -1 3 1 -3 -1 -2 5 2 1 -2 -0 -2 -1 -1 -1 1 -0 3 1 2 3 0 -0 -2 2 4 2 2 2 -0 -1 -1 -0 -0 -0 -2
-2 -4 -2 -1 1 5 -2 2 0 -2 -1 2 -3 2 3 0 2 -1 1 1 1 1 -1 -2 -3 -3 2 3 0 0 -0 -2 -2 -2 -1 -2 -2 -4 2 -2 -10 1 3 2 1 1 1
-1 -2 -3 -2 2 2 -0 2 -0 1 1 -4 5 -0 -3 -1 9 -1 -2 1 1 2 1 -1 1 -1 0 -1 0 -2 1 1 -2 -1 -2 -4 -3 -2 2 -0 -8 -1 -2 -1 1 -1 1
-2 -3 -2 -1 1 1 4 -2 -1 -2 2 3 -1 -4 -1 -3 -3 1 2 1 2 1 1 0 2 1 -2 1 1 1 1 -2 2 -2 1 -6 -1 -2 -6 -0 3 2 4 1 -2 -2 -2
Height
3052 3046 3039 3034 3027 3024 3022 3021 3020 3021 3022 3024 3028 3031 3034 3038 3041 3044 3052 3060 3068 3074 3081 3086 3092 3097 3100 3104 3105 3107 3108 3110 3111 3112 3114 3114 3116 3117 3117 3119 3119 3118 3119 3118 3118 3117 3116
3057 3051 3044 3039 3034 3029 3026 3025 3025 3025 3026 3027 3030 3031 3035 3038 3041 3043 3051 3059 3069 3074 3082 3088 3092 3098 3101 3104 3105 3107 3108 3109 3110 3112 3112 3112 3114 3115 3115 3117 3117 3116 3116 3116 3115 3114 3111
3062 3056 3049 3044 3041 3035 3032 3030 3028 3024 3027 3030 3032 3034 3036 3038 3040 3044 3052 3060 3072 3077 3085 3089 3094 3099 3102 3104 3105 3107 3107 3108 3109 3110 3111 3113 3113 3114 3114 3114 3114 3113 3114 3112 3111 3109 3106
3067 3062 3055 3049 3046 3043 3038 3036 3036 3033 3033 3034 3035 3036 3037 3038 3040 3046 3055 3065 3073 3081 3087 3092 3095 3100 3102 3103 3105 3106 3107 3108 3108 3108 3110 3111 3111 3112 3112 3113 3112 3111 3110 3109 3106 3105 3102
3072 3067 3062 3055 3050 3047 3044 3042 3040 3039 3038 3039 3038 3037 3037 3040 3046 3051 3059 3067 3076 3086 3090 3094 3099 3101 3103 3104 3105 3105 3107 3108 3108 3109 3109 3110 3110 3110 3110 3110 3110 3109 3108 3106 3104 3101 3097
3080 3073 3068 3063 3058 3055 3050 3048 3046 3044 3043 3040 3040 3038 3040 3042 3049 3055 3059 3069 3078 3086 3091 3095 3100 3104 3103 3104 3104 3106 3107 3107 3108 3108 3108 3109 3108 3107 3107 3107 3108 3105 3104 3101 3099 3097 3094
3086 3081 3076 3069 3066 3062 3058 3054 3053 3051 3049 3047 3046 3044 3047 3050 3051 3056 3065 3072 3082 3091 3093 3096 3100 3101 3102 3104 3105 3106 3107 3108 3107 3107 3106 3106 3106 3105 3105 3103 3103 3102 3101 3099 3098 3095 3089
3092 3088 3083 3078 3075 3071 3068 3064 3060 3056 3054 3054 3052 3053 3056 3058 3064 3068 3075 3080 3087 3092 3094 3098 3100 3103 3104 3105 3106 3107 3108 3108 3107 3106 3105 3106 3105 3104 3104 3103 3102 3100 3098 3097 3095 3093 3089
3100 3095 3092 3086 3082 3080 3077 3074 3070 3066 3064 3064 3063 3063 3065 3070 3074 3077 3084 3089 3093 3095 3096 3101 3103 3105 3106 3108 3108 3109 3109 3108 3107 3106 3106 3106 3106 3104 3104 3102 3101 3099 3097 3097 3095 3090 3085
3107 3102 3097 3094 3090 3087 3085 3085 3083 3080 3076 3075 3073 3073 3074 3076 3083 3085 3090 3094 3097 3098 3101 3108 3107 3108 3109 3110 3110 3110 3110 3111 3109 3108 3107 3107 3105 3104 3104 3102 3101 3097 3097 3095 3092 3089 3087
3112 3109 3104 3100 3097 3094 3091 3090 3091 3090 3089 3086 3084 3083 3084 3085 3087 3094 3097 3099 3099 3100 3103 3112 3110 3111 3111 3112 3113 3112 3111 3111 3109 3108 3109 3108 3105 3104 3103 3101 3099 3099 3095 3091 3089 3087 3086
3115 3113 3110 3107 3103 3100 3098 3095 3094 3095 3095 3094 3093 3093 3093 3093 3096 3099 3099 3100 3101 3104 3109 3112 3112 3113 3114 3113 3113 3113 3112 3112 3110 3108 3107 3106 3105 3104 3103 3100 3098 3096 3092 3087 3087 3087 3085
3119 3116 3115 3112 3110 3107 3104 3102 3099 3099 3100 3101 3101 3100 3099 3100 3101 3101 3101 3102 3103 3103 3113 3115 3115 3115 3115 3115 3115 3114 3113 3111 3110 3109 3106 3105 3104 3103 3102 3099 3096 3095 3091 3088 3086 3084 3079
3128 3120 3118 3117 3114 3112 3110 3108 3107 3105 3105 3106 3107 3107 3105 3105 3104 3103 3102 3104 3104 3110 3112 3115 3116 3116 3117 3116 3116 3114 3114 3112 3110 3108 3105 3104 3104 3102 3101 3100 3098 3095 3094 3093 3088 3082 3081
3134 3129 3122 3120 3119 3116 3115 3113 3111 3111 3109 3110 3110 3111 3111 3108 3106 3105 3106 3105 3109 3112 3115 3116 3117 3118 3117 3116 3115 3114 3113 3111 3110 3108 3108 3105 3103 3101 3100 3098 3098 3095 3095 3093 3090 3086 3083
3136 3134 3129 3123 3120 3119 3117 3117 3116 3114 3113 3112 3112 3113 3113 3112 3110 3109 3110 3109 3112 3115 3117 3118 3118 3117 3117 3116 3115 3113 3112 3112 3110 3109 3108 3106 3102 3100 3099 3098 3096 3095 3094 3092 3090 3085 3078
3139 3135 3134 3129 3124 3120 3119 3118 3117 3117 3115 3115 3115 3116 3116 3116 3115 3115 3114 3114 3116 3117 3118 3119 3118 3117 3117 3116 3115 3113 3114 3113 3110 3109 3107 3106 3104 3101 3098 3096 3095 3094 3092 3090 3089 3086 3081
3141 3138 3134 3133 3127 3124 3121 3119 3119 3118 3117 3118 3117 3117 3117 3117 3119 3118 3117 3118 3118 3119 3118 3118 3117 3117 3117 3116 3115 3114 3114 3113 3111 3109 3107 3106 3103 3098 3097 3094 3093 3092 3091 3089 3088 3086 3082
3144 3140 3136 3133 3132 3126 3124 3121 3119 3119 3119 3118 3118 3118 3118 3118 3118 3118 3119 3119 3119 3119 3119 3119 3118 3117 3117 3116 3117 3114 3113 3112 3110 3109 3107 3105 3102 3099 3095 3095 3091 3089 3087 3086 3085 3083 3078
3142 3141 3137 3134 3132 3131 3126 3123 3121 3119 3118 3119 3118 3118 3118 3118 3118 3118 3117 3118 3119 3119 3119 3118 3117 3116 3115 3115 3114 3112 3111 3109 3108 3107 3105 3104 3099 3098 3095 3091 3089 3085 3082 3081 3081 3080 3075
3140 3138 3137 3134 3131 3130 3127 3124 3122 3120 3119 3118 3118 3118 3117 3117 3118 3118 3118 3117 3116 3116 3116 3115 3115 3115 3115 3113 3111 3109 3108 3107 3105 3104 3103 3101 3095 3092 3087 3084 3081 3077 3076 3075 3072 3072 3071
3136 3135 3133 3132 3129 3127 3126 3123 3121 3120 3119 3118 3117 3116 3116 3115 3115 3116 3117 3116 3115 3115 3115 3116 3114 3113 3112 3111 3110 3107 3105 3104 3102 3101 3100 3098 3093 3088 3078 3075 3074 3069 3068 3067 3066 3065 3061
3133 3130 3129 3128 3127 3124 3123 3122 3119 3117 3117 3116 3115 3114 3114 3113 3112 3112 3111 3113 3114 3113 3112 3110 3110 3110 3109 3108 3105 3103 3101 3099 3097 3096 3095 3093 3090 3088 3077 3074 3069 3063 3060 3060 3059 3058 3058
3129 3126 3125 3124 3123 3122 3119 3118 3118 3115 3114 3114 3112 3111 3111 3110 3108 3108 3107 3107 3107 3108 3108 3109 3108 3106 3105 3103 3102 3099 3097 3093 3090 3090 3089 3088 3087 3086 3077 3072 3067 3059 3058 3057 3055 3054 3053
3124 3121 3121 3120 3119 3119 3119 3116 3114 3112 3110 3108 3108 3108 3107 3105 3105 3104 3103 3102 3102 3103 3103 3103 3103 3103 3101 3099 3096 3094 3090 3088 3085 3084 3083 3084 3085 3083 3078 3072 3061 3055 3055 3055 3053 3053 3051
3119 3116 3114 3115 3114 3113 3114 3114 3112 3110 3109 3105 3103 3103 3102 3102 3101 3101 3099 3098 3097 3097 3098 3098 3098 3097 3097 3096 3094 3091 3087 3085 3084 3081 3080 3080 3081 3083 3077 3074 3061 3053 3053 3052 3051 3050 3049
3113 3111 3109 3109 3108 3108 3108 3108 3107 3107 3104 3104 3100 3098 3097 3096 3096 3095 3094 3095 3094 3093 3093 3092 3092 3092 3092 3091 3091 3088 3084 3082 3080 3076 3075 3076 3077 3076 3077 3074 3056 3050 3050 3049 3050 3052 3046
3107 3106 3104 3103 3102 3102 3102 3101 3101 3101 3100 3099 3098 3094 3092 3089 3090 3089 3089 3088 3089 3089 3089 3088 3089 3086 3086 3086 3086 3083 3079 3077 3073 3072 3071 3072 3072 3068 3067 3067 3055 3048 3049 3050 3047 3043 3041
3101 3100 3099 3096 3096 3095 3095 3095 3095 3094 3093 3092 3093 3090 3087 3084 3084 3082 3082 3083 3082 3082 3083 3082 3084 3082 3082 3081 3080 3077 3075 3073 3071 3067 3064 3064 3061 3060 3059 3050 3046 3047 3045 3043 3040 3037 3035